Погода в Пакине

Россия / Владимирская область     56°21′36″N   41°14′12″E
темп.,
°C
ветер,
м/с
пор.,
м/с
влажн.,
%
обл.,
%
осадки,
мм/ч
давл.,
гПа
погр.,
м
26 июля, пн
пн2600:00+15зюз2264100 0.0 102225
03:00+14юз236574 0.0 102249
06:00+16зюз256393 0.0 1022141
09:00+19з355161 0.0 1023380
12:00+25з353390 0.0 10222656
15:00+24зсз553622 0.0 10212138
18:00+23зсз254328 0.0 10211340
21:00+19зюз26546 0.0 1021165
27 июля, вт
вт2700:00+18зюз2757100 0.0 1021178
03:00+17з276326 0.0 1021165
06:00+16сз25755 0.0 1021141
09:00+23ссз23485 0.0 1021605
12:00+27сз353794 0.0 10202644
15:00+26ссз344185 0.0 10191738
18:00+19св127782 0.4 1019104
21:00+18всв258130 0.5 1019101
28 июля, ср
ср2800:00+16ююв12845 0.3 101832
03:00+15сз019054 0.5 101810
06:00+17юв11845 0.0 101745
09:00+23ююв12572 0.0 1016507
12:00+27юз24392 0.0 10141781
15:00+27юз3442100 0.0 10121010
18:00+25зюз4854100 0.0 1011720
21:00+17юз3590100 1.7 1011103
29 июля, чт
чт2900:00+17юз1195100 0.6 101038
03:00+16юв2798100 6.7 1008336
06:00+16юв3898100 4.2 1006490
09:00+17ююв3595100 5.3 1005429
12:00+18ююз2392100 0.1 1005378
15:00+18з379667 2.5 1005463
18:00+20з489241 1.1 1004710
21:00+17з389811 1.8 1005243
30 июля, пт
пт3000:00+16зюз269721 0.0 1005125
03:00+17зюз310960 0.0 1006279
06:00+16з39911 0.0 1007233
09:00+22з49600 0.0 1008828
12:00+26з69350 0.0 10081804
15:00+27зсз69375 0.0 10082681
18:00+26зсз374514 0.0 1008720
21:00+20зюз226392 0.0 100916